Weather History for Ogden, UT

Change the Weather History Date:

Wednesday, November 23, 2011

  Actual Average Record
Temperature  
Mean Temperature 46 °F -  
Max Temperature 57 °F 44 °F 65 °F (1943)
Min Temperature 34 °F 25 °F 9 °F (1985)
Degree Days  
Heating Degree Days 20    
Moisture  
Dew Point 27 °F    
Average Humidity 53    
Maximum Humidity 70    
Minimum Humidity 30    
Precipitation  
Precipitation 0.00 in - - ()
Sea Level Pressure  
Sea Level Pressure 30.04 in    
Wind  
Wind Speed 7 mph (SSE)    
Max Wind Speed 13 mph    
Max Gust Speed -    
Visibility 10 miles    
Events      
Averages and records for this station are not official NWS values.
T = Trace of Precipitation, MM = Missing Value Source: NWS Daily Summary

Daily Weather History Graph

Daily Weather History Graph

Search for Another Location

Airport:

Trip Planner

Search our weather history database for the weather conditions in past years. The results will help you decide how hot, cold, wet, or windy it might be!

Date:

Astronomy

Nov. 23, 2011 Rise Set
Actual Time 7:25 AM MST 5:03 PM MST
Civil Twilight 6:55 AM MST 5:33 PM MST
Nautical Twilight 6:21 AM MST 6:07 PM MST
Astronomical Twilight 5:48 AM MST 6:40 PM MST
Moon 5:33 AM MST (11/23) 3:47 PM MST (11/23)
Length of Visible Light 10h 38m
Length of Day
9h 38m
Waning Crescent, 3% of the Moon is Illuminated
Nov 23
Waning Crescent
Nov 24
New
Dec 2
First Quarter
Dec 10
Full
Dec 17
Last Quarter

Hourly Weather History & Observations

Time (MST) Temp. Windchill Dew Point Humidity Pressure Visibility Wind Dir Wind Speed Gust Speed Precip Events Conditions
12:53 AM 36.0 °F 30.3 °F 27.0 °F 70% 30.17 in 10.0 mi South 6.9 mph - N/A   Clear
2:53 AM 36.0 °F 30.3 °F 26.1 °F 67% 30.14 in 10.0 mi South 6.9 mph - N/A   Clear
3:53 AM 36.0 °F 28.5 °F 25.0 °F 64% 30.14 in 10.0 mi South 10.4 mph - N/A   Clear
5:53 AM 34.0 °F 27.2 °F 25.0 °F 70% 30.15 in 10.0 mi South 8.1 mph - N/A   Clear
6:53 AM 34.0 °F 26.0 °F 25.0 °F 70% 30.16 in 10.0 mi SSE 10.4 mph - N/A   Clear
7:53 AM 34.0 °F 25.0 °F 24.1 °F 67% 30.17 in 10.0 mi South 12.7 mph - N/A   Clear
8:53 AM 37.9 °F 30.5 °F 25.0 °F 60% 30.15 in 10.0 mi SSE 11.5 mph - N/A   Clear
9:53 AM 42.1 °F 37.7 °F 26.1 °F 53% 30.15 in 10.0 mi South 6.9 mph - N/A   Clear
10:53 AM 46.9 °F - 28.0 °F 48% 30.13 in 10.0 mi SSE 4.6 mph - N/A   Clear
11:53 AM 50.0 °F - 28.0 °F 43% 30.09 in 10.0 mi Calm Calm - N/A   Clear
12:53 PM 54.0 °F - 28.0 °F 37% 30.05 in 10.0 mi SSE 4.6 mph - N/A   Clear
1:53 PM 57.0 °F - 26.1 °F 30% 30.00 in 10.0 mi South 6.9 mph - N/A   Clear
2:53 PM 55.9 °F - 26.1 °F 32% 29.98 in 10.0 mi Calm Calm - N/A   Clear
3:53 PM 55.0 °F - 27.0 °F 34% 29.95 in 10.0 mi Calm Calm - N/A   Clear
4:53 PM 48.9 °F - 28.9 °F 46% 29.96 in 10.0 mi South 3.5 mph - N/A   Clear
5:53 PM 43.0 °F 40.3 °F 28.9 °F 58% 29.97 in 10.0 mi South 4.6 mph - N/A   Clear
6:53 PM 43.0 °F 37.7 °F 28.9 °F 58% 29.96 in 10.0 mi South 9.2 mph - N/A   Clear
7:53 PM 44.6 °F 39.7 °F 28.4 °F 53% 29.95 in 10.0 mi SSE 9.2 mph - N/A   Clear
8:53 PM 44.1 °F 39.5 °F 28.0 °F 53% 29.93 in 10.0 mi SSE 8.1 mph - N/A   Clear
9:53 PM 44.1 °F 37.7 °F 27.0 °F 51% 29.91 in 10.0 mi SSE 12.7 mph - N/A   Clear
10:53 PM 45.0 °F 39.3 °F 27.0 °F 49% 29.88 in 10.0 mi SSE 11.5 mph - N/A   Clear
11:53 PM 46.0 °F 41.4 °F 27.0 °F 47% 29.86 in 10.0 mi SE 9.2 mph - N/A   Clear